When you browse on this site, cookies collect data to enhance your experience and personalize the content and advertising you see.
Visit our Privacy Policy to learn more. By continuing to use the site, you agree to this use of cookies and data.
  • In Portugal
  • List of Countries
  • For 7 days
  • Water Temperature
  • Satellite Maps
  • Weather Map
  • Weather Widgets
  • user-avatar
    Login

    Hourly Weather Uida

    Today, 27 May, Monday

    Time Temperature Precipitation Wind Pressure Humidity
    00:00 +30°C° 0 mm 4 mps 757 mmHg 76%
    01:00 +30°C° 0 mm 4 mps 757 mmHg 76%
    02:00 +30°C° 0 mm 4 mps 757 mmHg 77%
    03:00 +30°C° 0 mm 4 mps 756 mmHg 77%
    04:00 +30°C° 0 mm 4 mps 756 mmHg 78%
    05:00 +29°C° 0 mm 4 mps 757 mmHg 79%
    06:00 +29°C° 0 mm 2 mps 757 mmHg 80%
    07:00 +30°C° 0 mm 2 mps 757 mmHg 73%
    08:00 +33°C° 0 mm 3 mps 757 mmHg 66%
    09:00 +34°C° 0 mm 3 mps 757 mmHg 59%
    10:00 +35°C° 0 mm 3 mps 757 mmHg 56%
    11:00 +36°C° 0 mm 4 mps 757 mmHg 54%
    12:00 +36°C° 0 mm 5 mps 756 mmHg 51%
    13:00 +36°C° 0 mm 5 mps 756 mmHg 53%
    14:00 +35°C° 0 mm 5 mps 755 mmHg 55%
    15:00 +35°C° 0 mm 5 mps 754 mmHg 56%
    16:00 +34°C° 0 mm 5 mps 755 mmHg 62%
    17:00 +32°C° 0 mm 5 mps 755 mmHg 68%
    18:00 +30°C° 0 mm 5 mps 755 mmHg 75%
    19:00 +30°C° 0 mm 5 mps 755 mmHg 77%
    20:00 +30°C° 0 mm 5 mps 756 mmHg 79%
    21:00 +29°C° 0 mm 5 mps 756 mmHg 81%
    22:00 +29°C° 0 mm 5 mps 756 mmHg 82%
    23:00 +29°C° 0 mm 5 mps 756 mmHg 82%

    Tomorrow, 28 May, Tuesday

    Time Temperature Precipitation Wind Pressure Humidity
    00:00 +29°C° 0 mm 5 mps 756 mmHg 83%
    01:00 +29°C° 0 mm 5 mps 756 mmHg 83%
    02:00 +29°C° 0 mm 5 mps 756 mmHg 84%
    03:00 +29°C° 0 mm 5 mps 756 mmHg 84%
    04:00 +28°C° 0.1 mm 4 mps 756 mmHg 84%
    05:00 +28°C° 0.1 mm 3 mps 756 mmHg 85%
    06:00 +28°C° 0.1 mm 3 mps 756 mmHg 85%
    07:00 +30°C° 0 mm 3 mps 757 mmHg 77%
    08:00 +33°C° 0 mm 4 mps 757 mmHg 68%
    09:00 +35°C° 0 mm 4 mps 757 mmHg 59%
    10:00 +35°C° 0.9 mm 4 mps 757 mmHg 59%
    11:00 +35°C° 0.9 mm 4 mps 757 mmHg 59%
    12:00 +36°C° 0.9 mm 4 mps 757 mmHg 59%
    13:00 +36°C° 0 mm 5 mps 756 mmHg 58%
    14:00 +36°C° 0 mm 5 mps 755 mmHg 56%
    15:00 +36°C° 0 mm 6 mps 755 mmHg 55%
    16:00 +35°C° 0 mm 6 mps 755 mmHg 61%
    17:00 +33°C° 0 mm 5 mps 755 mmHg 67%
    18:00 +32°C° 0 mm 5 mps 755 mmHg 73%
    19:00 +30°C° 0 mm 5 mps 756 mmHg 74%
    20:00 +30°C° 0 mm 6 mps 756 mmHg 76%
    21:00 +30°C° 0 mm 6 mps 756 mmHg 77%
    22:00 +30°C° 0 mm 6 mps 756 mmHg 78%
    23:00 +30°C° 0 mm 6 mps 756 mmHg 78%

    Day after tomorrow, 29 May, Wednesday

    Time Temperature Precipitation Wind Pressure Humidity
    00:00 +30°C° 0 mm 6 mps 756 mmHg 79%
    01:00 +30°C° 0 mm 6 mps 756 mmHg 80%
    02:00 +29°C° 0 mm 5 mps 756 mmHg 80%
    03:00 +29°C° 0 mm 5 mps 756 mmHg 81%
    04:00 +29°C° 1.1 mm 5 mps 756 mmHg 83%
    05:00 +29°C° 1.1 mm 5 mps 756 mmHg 84%
    06:00 +29°C° 1.1 mm 4 mps 756 mmHg 86%
    07:00 +29°C° 1.1 mm 5 mps 757 mmHg 83%
    08:00 +30°C° 1.1 mm 5 mps 757 mmHg 81%
    09:00 +32°C° 1.1 mm 5 mps 758 mmHg 79%
    10:00 +32°C° 2.9 mm 5 mps 757 mmHg 76%
    11:00 +32°C° 2.9 mm 5 mps 757 mmHg 73%
    12:00 +33°C° 2.9 mm 5 mps 757 mmHg 70%
    13:00 +33°C° 0 mm 5 mps 756 mmHg 67%
    14:00 +34°C° 0 mm 5 mps 755 mmHg 64%
    15:00 +34°C° 0 mm 6 mps 754 mmHg 61%
    16:00 +33°C° 0 mm 5 mps 755 mmHg 66%
    17:00 +32°C° 0 mm 5 mps 755 mmHg 71%
    18:00 +30°C° 0 mm 5 mps 755 mmHg 76%
    19:00 +30°C° 0 mm 5 mps 756 mmHg 77%
    20:00 +30°C° 0 mm 6 mps 756 mmHg 78%
    21:00 +30°C° 0 mm 6 mps 757 mmHg 79%
    22:00 +30°C° 0 mm 7 mps 757 mmHg 79%
    23:00 +29°C° 0 mm 7 mps 756 mmHg 79%

    30 May, Thursday

    Time Temperature Precipitation Wind Pressure Humidity
    00:00 +29°C° 0 mm 7 mps 756 mmHg 80%
    01:00 +29°C° 0.5 mm 6 mps 756 mmHg 81%
    02:00 +29°C° 0.5 mm 6 mps 756 mmHg 83%
    03:00 +28°C° 0.5 mm 5 mps 756 mmHg 85%
    04:00 +28°C° 0.5 mm 4 mps 756 mmHg 86%
    05:00 +28°C° 0.5 mm 4 mps 756 mmHg 86%
    06:00 +28°C° 0.5 mm 4 mps 757 mmHg 86%
    07:00 +29°C° 0.1 mm 4 mps 757 mmHg 82%
    08:00 +30°C° 0.1 mm 4 mps 758 mmHg 77%
    09:00 +32°C° 0.1 mm 4 mps 758 mmHg 72%
    10:00 +30°C° 3.4 mm 4 mps 758 mmHg 76%
    11:00 +30°C° 3.4 mm 4 mps 757 mmHg 81%
    12:00 +29°C° 3.4 mm 4 mps 757 mmHg 85%
    13:00 +29°C° 1.2 mm 5 mps 756 mmHg 83%
    14:00 +29°C° 1.2 mm 5 mps 756 mmHg 82%
    15:00 +30°C° 1.2 mm 6 mps 755 mmHg 80%
    16:00 +29°C° 2.7 mm 6 mps 755 mmHg 83%
    17:00 +28°C° 2.7 mm 5 mps 756 mmHg 86%
    18:00 +28°C° 2.7 mm 5 mps 756 mmHg 89%
    19:00 +28°C° 1.3 mm 5 mps 757 mmHg 89%
    20:00 +28°C° 1.3 mm 5 mps 758 mmHg 88%
    21:00 +27°C° 1.3 mm 5 mps 758 mmHg 88%
    22:00 +27°C° 0.1 mm 5 mps 758 mmHg 89%
    23:00 +27°C° 0.1 mm 5 mps 758 mmHg 90%

    31 May, Friday

    Time Temperature Precipitation Wind Pressure Humidity
    00:00 +27°C° 0.1 mm 5 mps 757 mmHg 90%
    01:00 +27°C° 0.6 mm 4 mps 757 mmHg 91%
    02:00 +27°C° 0.6 mm 4 mps 757 mmHg 91%
    03:00 +27°C° 0.6 mm 3 mps 756 mmHg 92%
    04:00 +27°C° 2.4 mm 3 mps 756 mmHg 92%
    05:00 +27°C° 2.4 mm 2 mps 757 mmHg 91%
    06:00 +27°C° 2.4 mm 2 mps 757 mmHg 91%
    07:00 +28°C° 0.3 mm 2 mps 757 mmHg 85%
    08:00 +29°C° 0.3 mm 2 mps 758 mmHg 79%
    09:00 +31°C° 0.3 mm 2 mps 758 mmHg 73%
    10:00 +31°C° 0.6 mm 2 mps 757 mmHg 71%
    11:00 +33°C° 0.6 mm 3 mps 757 mmHg 69%
    12:00 +33°C° 0.6 mm 3 mps 757 mmHg 68%
    13:00 +31°C° 2.1 mm 3 mps 756 mmHg 74%
    14:00 +30°C° 2.1 mm 3 mps 755 mmHg 79%
    15:00 +29°C° 2.1 mm 4 mps 755 mmHg 85%
    16:00 +28°C° 0.1 mm 3 mps 755 mmHg 86%
    17:00 +28°C° 0.1 mm 3 mps 756 mmHg 87%
    18:00 +28°C° 0.1 mm 3 mps 756 mmHg 87%
    19:00 +28°C° 0.1 mm 3 mps 756 mmHg 88%
    20:00 +28°C° 0.1 mm 3 mps 757 mmHg 88%
    21:00 +28°C° 0.1 mm 3 mps 758 mmHg 88%
    22:00 +27°C° 0 mm 3 mps 757 mmHg 88%
    23:00 +27°C° 0 mm 3 mps 757 mmHg 89%

    1 June, Saturday

    Time Temperature Precipitation Wind Pressure Humidity
    00:00 +27°C° 0 mm 3 mps 756 mmHg 89%
    01:00 +27°C° 0 mm 3 mps 756 mmHg 89%
    02:00 +27°C° 0 mm 3 mps 755 mmHg 89%
    03:00 +27°C° 0 mm 3 mps 755 mmHg 89%
    04:00 +27°C° 0 mm 3 mps 755 mmHg 89%
    05:00 +27°C° 0 mm 2 mps 756 mmHg 89%
    06:00 +27°C° 0 mm 2 mps 756 mmHg 89%
    07:00 +28°C° 0.3 mm 2 mps 757 mmHg 86%
    08:00 +29°C° 0.3 mm 3 mps 757 mmHg 82%
    09:00 +30°C° 0.3 mm 3 mps 757 mmHg 78%
    10:00 +30°C° 2.6 mm 3 mps 757 mmHg 79%
    11:00 +30°C° 2.6 mm 4 mps 756 mmHg 80%
    12:00 +30°C° 2.6 mm 4 mps 756 mmHg 82%
    13:00 +30°C° 0.7 mm 4 mps 755 mmHg 81%
    14:00 +30°C° 0.7 mm 4 mps 755 mmHg 81%
    15:00 +30°C° 0.7 mm 4 mps 755 mmHg 81%
    16:00 +30°C° 0 mm 3 mps 755 mmHg 82%
    17:00 +29°C° 0 mm 3 mps 755 mmHg 84%
    18:00 +29°C° 0 mm 3 mps 756 mmHg 85%
    19:00 +28°C° 0 mm 3 mps 756 mmHg 86%
    20:00 +28°C° 0 mm 3 mps 757 mmHg 86%
    21:00 +28°C° 0 mm 3 mps 757 mmHg 86%
    22:00 +28°C° 0 mm 3 mps 757 mmHg 87%
    23:00 +28°C° 0 mm 4 mps 757 mmHg 87%
    Show more